Location: Unspecified
(43.4680°N, 87.1740°E)
Time: 12:12:16
(UTC+00:00)

SL-8 Rocket - Pass Details

Date: 17 January 2020
Orbit: 956 x 991 km, 82.9° (Epoch: 17 February)

Event Time Altitude Azimuth Distance (km) Brightness Sun altitude
Rises 12:37:50 0° 167° (SSE) 3,691 7.0 -17.0°
Reaches altitude 10° 12:40:26 10° 161° (SSE) 2,746 6.3 -17.5°
Maximum altitude 12:46:23 46° 90° (E) 1,301 4.2 -18.6°
Drops below altitude 10° 12:52:22 10° 19° (NNE) 2,752 6.1 -19.6°
Sets 12:54:58 0° 14° (NNE) 3,700 6.8 -20.1°
